Regional Weather Roundup
Issued by NWS

Home | Current Version | Previous Version | Text Only | Print | Product List | Glossary Off
Versions: 1 2 3 4 5 6 7 8 9 10 11 12 13 14 15 16 17 18 19 20 21 22 23 24 25 26 27 28 29 30 31 32 33 34 35 36 37 38 39 40 41 42 43 44 45 46 47 48 49 50

000
ASUS43 KFSD 150202
RWRSD

WEATHER ROUNDUP FOR SOUTH DAKOTA
NATIONAL WEATHER SERVICE SIOUX FALLS SD
800 PM CST THU DEC 14 2017

NOTE: "FAIR" INDICATES FEW OR NO CLOUDS BELOW 12,000 FEET WITH NO
SIGNIFICANT WEATHER AND/OR OBSTRUCTIONS TO VISIBILITY.


SDZ001>005-009-010-012>017-150300-
NORTHWEST AND NORTH CENTRAL SOUTH DAKOTA

CITY           SKY/WX    TMP DP  RH WIND       PRES   REMARKS
BUFFALO          N/A     23  19  85 W9        30.04F WCI  13
FAITH            N/A     31  26  82 W12       30.13S WCI  22
MOBRIDGE       CLOUDY    35  25  66 NW12      30.08S WCI  27
$$

SDZ012>016-024>037-041>051-057-063-072>074-150300-
SOUTHWEST AND SOUTH CENTRAL SOUTH DAKOTA

CITY           SKY/WX    TMP DP  RH WIND       PRES   REMARKS
RAPID CTY ARPT CLEAR     22  14  71 W5        30.16F WCI  16
PIERRE         CLOUDY    33  26  75 W8        30.14F WCI  26
CUSTER         CLOUDY    20  12  71 W8        30.10S WCI  10
ELLSWORTH AFB  CLEAR     22  15  74 W5        30.15F WCI  16
PHILIP         CLOUDY    32  29  88 W5        30.18S WCI  27
PINE RIDGE     MOCLDY    30  23  75 SW3       30.19F
SPEARFISH      FAIR      27  18  69 W8        30.14S WCI  18
WINNER         CLOUDY    32  26  78 W8        30.16F WCI  25
$$

SDZ004>011-016>023-039-040-150300-
NORTHEAST SOUTH DAKOTA

CITY           SKY/WX    TMP DP  RH WIND       PRES   REMARKS
ABERDEEN       CLOUDY    27  25  92 SW6       30.08F WCI  20
WATERTOWN      CLOUDY    26  23  88 W8        30.04F WCI  18
BROOKINGS      FLURRIES  26  21  81 NW7       30.07F WCI  18
SISSETON         N/A     29  24  82 NW7       30.04F WCI  22
$$

SDZ017-020-022-023-036>040-048>070-150300-
SOUTHEAST SOUTH DAKOTA

CITY           SKY/WX    TMP DP  RH WIND       PRES   REMARKS
SIOUX FALLS    MOCLDY    29  25  85 NW10      30.10S WCI  20
HURON          CLOUDY    28  26  92 CALM      30.12F
CHAMBERLAIN    CLOUDY    32  30  93 W5        30.15F WCI  27
MITCHELL       CLOUDY    29  26  89 CALM      30.14F
YANKTON        CLOUDY    33  27  78 NW10      30.14S WCI  25
$$

ABBREVIATIONS USED IN REMARKS
   TC - TEMPERATURE IN CELSIUS
  WCI - WIND CHILL INDEX
   HX - HEAT INDEX
  VSB - VISIBILITY





USA.gov is the U.S. government's official web portal to all federal, state and local government web resources and services.